This is the latest recevied weather packets stored in our database for station/object WX6HNX-5. If no packets are shown the sender has not sent any weather packets the latest 10 day(s).
| Time | Temp. | Humidity | Pressure | Rain* | Wind** | Luminosity | Snow |
|---|---|---|---|---|---|---|---|
| 1778096381 | 22.78° C | 47% | 1017.8 hPa | 0 mm | - | - | - |
| 1778096082 | 22.78° C | 49% | 1017.9 hPa | 0 mm | - | - | - |
| 1778095783 | 22.78° C | 49% | 1018 hPa | 0 mm | - | - | - |
| 1778095481 | 22.78° C | 50% | 1018.1 hPa | 0 mm | - | - | - |
| 1778095181 | 22.22° C | 51% | 1018.2 hPa | 0 mm | - | - | - |
| 1778094783 | 22.22° C | 51% | 1018.3 hPa | 0 mm | - | - | - |
| 1778094483 | 22.22° C | 52% | 1018.4 hPa | 0 mm | - | - | - |
| 1778094183 | 21.67° C | 54% | 1018.5 hPa | 0 mm | - | - | - |
| 1778093885 | 21.11° C | 54% | 1018.4 hPa | 0 mm | - | - | - |
| 1778093583 | 21.11° C | 54% | 1018.6 hPa | 0 mm | - | - | - |
| 1778093285 | 21.11° C | 54% | 1018.7 hPa | 0 mm | - | - | - |
| 1778092983 | 21.67° C | 53% | 1018.7 hPa | 0 mm | - | - | - |
| 1778092684 | 21.67° C | 55% | 1018.8 hPa | 0 mm | - | - | - |
| 1778092383 | 22.22° C | 53% | 1018.8 hPa | 0 mm | - | - | - |
| 1778092083 | 22.22° C | 54% | 1018.7 hPa | 0 mm | - | - | - |
| 1778091783 | 21.67° C | 56% | 1018.9 hPa | 0 mm | - | - | - |
| 1778091183 | 21.11° C | 56% | 1019 hPa | 0 mm | - | - | - |
| 1778090884 | 21.11° C | 56% | 1019.1 hPa | 0 mm | - | - | - |
| 1778090583 | 21.11° C | 57% | 1019.1 hPa | 0 mm | - | - | - |
| 1778090283 | 21.11° C | 57% | 1019.2 hPa | 0 mm | - | - | - |
| 1778089983 | 20.56° C | 59% | 1019.2 hPa | 0 mm | - | - | - |
| 1778089683 | 20° C | 61% | 1019.2 hPa | 0 mm | - | - | - |
| 1778089383 | 19.44° C | 63% | 1019.2 hPa | 0 mm | - | - | - |
| 1778089083 | 19.44° C | 63% | 1019.3 hPa | 0 mm | - | - | - |
| 1778088783 | 19.44° C | 61% | 1019.3 hPa | 0 mm | - | - | - |
* Rain latest hour (hover to see other rain measurements)
** Current wind speed in m/s (hover to see current wind gust speed)